sat.trackr.live / text

‹ back to catalog

UNKNOWN

NORAD 82627

UNKNOWN UNKNOWN UNKNOWN

§ Identity

Operator
Country
Launch date
Launch site
Launch vehicle
Mass (kg)
RCS (m²)

External: N2YO · Heavens-Above

§ Orbital elements

Epoch: 2026-09-15T21:03:36.071712Z

Period
109.37 min
Inclination
82.4760°
Eccentricity
0.0015008
Mean motion
13.16666148 rev/d
Perigee alt
1,186.1 km
Apogee alt
1,208.9 km
Semi-major
7,575.6 km
B*
1.0589e-3
RAAN
50.9386°
Arg perigee
145.8326°
Mean anomaly
10.5373°
Rev number
61,529

§ Raw data

UNKNOWN1 82627U          26258.87750083  .00000418  00000+0  10589-2 0  99932 82627  82.4760  50.9386 0015008 145.8326  10.5373 13.16666148615292

JSON: /api/v1/satellites/82627 · /tle

For live sub-satellite position, see the globe view (requires WebGL).

§ Visibility from observer

Set your observer location to see the next 7 days of passes ≥ 10°. The values pass through the URL so the page stays shareable.

No JS? Fill the form by hand. The geolocation button needs JavaScript.